Location: Unspecified
(43.1763°N, 179.4719°W)
Time: 15:17:33
(UTC-04:00)

CZ-3 Stage 3 - Visible Passes

Search period start: 16 October 2021 00:00
Search period end: 26 October 2021 00:00
Orbit: 475 x 34708 km, 30.4° (Epoch: 16 October)

Date Brightness Start Highest point End Pass type
(mag) Time Alt. Az. Time Alt. Az. Time Alt. Az.
18 Oct 4.7 01:57:46 10° WSW 02:24:43 39° SSW 02:29:37 13° SE visible
21 Oct 4.8 01:44:47 10° WSW 02:13:17 40° SSW 02:18:35 10° SE visible
22 Oct 8.1 15:18:14 10° SE 18:09:15 25° SE 18:55:08 10° E visible
24 Oct 4.8 01:31:41 10° WSW 02:01:49 41° SSW 02:07:17 10° SE visible
24 Oct 6.4 15:26:38 10° S 22:13:49 47° S 22:30:42 10° E visible
25 Oct 8.2 15:02:49 10° SE 17:57:26 26° SE 18:44:00 10° E visible
